| time (UTC) | temp F | wind direction | speed MPH | gust MPH | rain 1hr in | rain 24hr in | rain mn in | humidity % | barometer mb |
| 20260506131526 | 47 | 5 | 1.0 | 3.0 | 0.00 | 0.91 | 0.21 | 89 | 1011.2 |
| 20260506130018 | 46 | 342 | 1.0 | 5.0 | 0.00 | 0.91 | 0.21 | 86 | 1011.1 |
| 20260506124516 | 47 | 337 | 2.0 | 3.0 | 0.00 | 0.91 | 0.21 | 89 | 1011.0 |
| 20260506123010 | 47 | 352 | 1.0 | 4.0 | 0.00 | 0.91 | 0.21 | 93 | 1010.1 |
| 20260506121510 | 46 | 352 | 1.0 | 2.0 | 0.00 | 0.91 | 0.21 | 94 | 1010.0 |
| 20260506120025 | 46 | 5 | 1.0 | 3.0 | 0.00 | 0.91 | 0.21 | 94 | 1010.2 |
| 20260506114533 | 46 | 352 | 0.0 | 0.0 | 0.00 | 0.91 | 0.21 | 94 | 1010.3 |
| 20260506113026 | 46 | 352 | 0.0 | 3.0 | 0.00 | 0.91 | 0.21 | 94 | 1009.8 |
| 20260506111518 | 46 | 360 | 1.0 | 5.0 | 0.00 | 0.91 | 0.21 | 93 | 1009.1 |
| 20260506110018 | 46 | 352 | 2.0 | 4.0 | 0.00 | 0.91 | 0.21 | 94 | 1008.9 |
| 20260506104510 | 46 | 334 | 1.0 | 5.0 | 0.00 | 0.91 | 0.21 | 94 | 1009.3 |
| 20260506103028 | 46 | 360 | 2.0 | 3.0 | 0.01 | 0.91 | 0.21 | 93 | 1009.1 |
| 20260506101526 | 46 | 351 | 1.0 | 4.0 | 0.01 | 0.91 | 0.21 | 93 | 1008.6 |
| 20260506100031 | 45 | 5 | 2.0 | 4.0 | 0.01 | 0.91 | 0.21 | 93 | 1008.0 |
| 20260506094519 | 45 | 17 | 0.0 | 5.0 | 0.02 | 0.91 | 0.21 | 93 | 1007.7 |
| 20260506093017 | 46 | 15 | 2.0 | 7.0 | 0.03 | 0.90 | 0.20 | 93 | 1008.0 |
| 20260506091515 | 46 | 15 | 2.0 | 4.0 | 0.05 | 0.90 | 0.20 | 94 | 1008.1 |
| 20260506090012 | 46 | 343 | 3.0 | 5.0 | 0.06 | 0.90 | 0.20 | 94 | 1007.8 |
| 20260506084528 | 46 | 352 | 3.0 | 7.0 | 0.05 | 0.89 | 0.19 | 93 | 1008.3 |
| 20260506083027 | 46 | 352 | 3.0 | 7.0 | 0.03 | 0.87 | 0.17 | 93 | 1007.8 |
| 20260506081526 | 47 | 351 | 3.0 | 7.0 | 0.02 | 0.85 | 0.15 | 93 | 1008.0 |
| 20260506073014 | 47 | 341 | 2.0 | 4.0 | 0.06 | 0.84 | 0.14 | 93 | 1007.3 |
| 20260506071530 | 48 | 12 | 3.0 | 5.0 | 0.06 | 0.83 | 0.13 | 93 | 1007.2 |
| 20260506061533 | 50 | 360 | 2.0 | 3.0 | 0.07 | 0.77 | 0.07 | 94 | 1007.3 |
| 20260506044523 | 50 | 360 | 0.0 | 0.0 | 0.01 | 0.70 | 0.00 | 93 | 1007.9 |
| 20260506043022 | 50 | 352 | 1.0 | 4.0 | 0.04 | 0.70 | 0.00 | 92 | 1008.1 |
| 20260506041517 | 51 | 352 | 2.0 | 3.0 | 0.11 | 0.70 | 0.00 | 91 | 1008.1 |
| 20260506040021 | 52 | 352 | 0.0 | 5.0 | 0.18 | 0.70 | 0.00 | 90 | 1008.3 |
| 20260506034512 | 55 | 344 | 2.0 | 4.0 | 0.19 | 0.69 | 0.69 | 89 | 1008.4 |
| 20260506033014 | 57 | 267 | 1.0 | 11.0 | 0.19 | 0.66 | 0.66 | 93 | 1008.5 |
| 20260506031529 | 58 | 236 | 2.0 | 11.0 | 0.16 | 0.58 | 0.58 | 93 | 1008.7 |
| 20260506030025 | 58 | 252 | 6.0 | 12.0 | 0.13 | 0.52 | 0.52 | 93 | 1008.7 |
| 20260506024535 | 58 | 203 | 3.0 | 7.0 | 0.15 | 0.50 | 0.50 | 92 | 1008.6 |
| 20260506023020 | 59 | 219 | 1.0 | 4.0 | 0.15 | 0.47 | 0.47 | 93 | 1008.8 |
| 20260506021519 | 59 | 207 | 1.0 | 4.0 | 0.12 | 0.43 | 0.43 | 93 | 1008.9 |
| 20260506020013 | 59 | 252 | 2.0 | 13.0 | 0.08 | 0.39 | 0.39 | 93 | 1008.9 |
| 20260506014514 | 59 | 215 | 1.0 | 3.0 | 0.05 | 0.35 | 0.35 | 93 | 1008.8 |
| 20260506013028 | 59 | 207 | 0.0 | 2.0 | 0.04 | 0.32 | 0.32 | 93 | 1008.6 |
| 20260506011556 | 59 | 198 | 0.0 | 2.0 | 0.03 | 0.31 | 0.31 | 93 | 1008.4 |
| 20260506010023 | 59 | 202 | 1.0 | 4.0 | 0.04 | 0.31 | 0.31 | 93 | 1008.4 |
| 20260506004518 | 59 | 188 | 0.0 | 6.0 | 0.03 | 0.30 | 0.30 | 93 | 1008.7 |
| 20260506003019 | 59 | 222 | 2.0 | 6.0 | 0.01 | 0.28 | 0.28 | 93 | 1008.7 |
| 20260506001512 | 59 | 232 | 1.0 | 6.0 | 0.01 | 0.28 | 0.28 | 93 | 1008.6 |
| 20260506000045 | 59 | 209 | 1.0 | 2.0 | 0.00 | 0.27 | 0.27 | 93 | 1008.5 |
| 20260505234539 | 59 | 202 | 0.0 | 2.0 | 0.01 | 0.27 | 0.27 | 92 | 1008.5 |
| 20260505233024 | 59 | 229 | 0.0 | 3.0 | 0.03 | 0.27 | 0.27 | 92 | 1008.6 |
| 20260505231523 | 59 | 232 | 1.0 | 4.0 | 0.08 | 0.27 | 0.27 | 92 | 1008.8 |
| 20260505230046 | 59 | 207 | 1.0 | 4.0 | 0.11 | 0.27 | 0.27 | 91 | 1008.9 |
| 20260505224534 | 59 | 221 | 1.0 | 7.0 | 0.26 | 0.26 | 0.26 | 91 | 1009.1 |
| 20260505223021 | 59 | 50 | 1.0 | 10.0 | 0.24 | 0.24 | 0.24 | 90 | 1009.2 |
| 20260505221528 | 59 | 263 | 1.0 | 6.0 | 0.19 | 0.19 | 0.19 | 89 | 1009.2 |
| 20260505220027 | 60 | 254 | 2.0 | 13.0 | 0.16 | 0.16 | 0.16 | 85 | 1009.1 |
| 20260505214529 | 67 | 28 | 3.0 | 16.0 | 0.00 | 0.00 | 0.00 | 68 | 1008.8 |
| 20260505213026 | 69 | 243 | 3.0 | 15.0 | 0.00 | 0.00 | 0.00 | 60 | 1008.1 |
| 20260505211527 | 70 | 282 | 5.0 | 19.0 | 0.00 | 0.00 | 0.00 | 59 | 1007.9 |
| 20260505210017 | 69 | 171 | 5.0 | 12.0 | 0.00 | 0.00 | 0.00 | 59 | 1007.7 |
| 20260505204515 | 69 | 156 | 8.0 | 12.0 | 0.00 | 0.00 | 0.00 | 60 | 1008.3 |
| 20260505203028 | 69 | 215 | 5.0 | 11.0 | 0.00 | 0.00 | 0.00 | 59 | 1008.2 |
| 20260505201529 | 69 | 256 | 6.0 | 13.0 | 0.00 | 0.00 | 0.00 | 59 | 1008.4 |
| 20260505200026 | 68 | 153 | 3.0 | 14.0 | 0.00 | 0.00 | 0.00 | 61 | 1008.7 |
| 20260505194528 | 68 | 190 | 6.0 | 15.0 | 0.00 | 0.00 | 0.00 | 59 | 1008.8 |
| 20260505193024 | 68 | 199 | 5.0 | 17.0 | 0.00 | 0.00 | 0.00 | 60 | 1009.0 |
| 20260505191518 | 68 | 237 | 6.0 | 18.0 | 0.00 | 0.00 | 0.00 | 60 | 1009.2 |
| 20260505190016 | 68 | 234 | 6.0 | 14.0 | 0.00 | 0.00 | 0.00 | 59 | 1009.4 |
| 20260505184532 | 68 | 242 | 6.0 | 17.0 | 0.00 | 0.00 | 0.00 | 59 | 1009.6 |
| 20260505183028 | 68 | 277 | 6.0 | 15.0 | 0.00 | 0.00 | 0.00 | 60 | 1009.5 |
| 20260505181523 | 68 | 221 | 8.0 | 15.0 | 0.00 | 0.00 | 0.00 | 59 | 1009.5 |
| 20260505180035 | 68 | 234 | 6.0 | 12.0 | 0.00 | 0.00 | 0.00 | 59 | 1009.3 |
| 20260505174520 | 69 | 242 | 5.0 | 14.0 | 0.00 | 0.00 | 0.00 | 60 | 1009.3 |
| 20260505173019 | 69 | 263 | 6.0 | 16.0 | 0.00 | 0.00 | 0.00 | 58 | 1009.5 |
| 20260505171526 | 70 | 207 | 6.0 | 14.0 | 0.00 | 0.00 | 0.00 | 56 | 1009.5 |
| 20260505170028 | 71 | 200 | 6.0 | 15.0 | 0.00 | 0.00 | 0.00 | 55 | 1009.5 |
| 20260505164526 | 71 | 260 | 6.0 | 15.0 | 0.00 | 0.00 | 0.00 | 55 | 1009.4 |
| 20260505163024 | 71 | 250 | 6.0 | 18.0 | 0.00 | 0.00 | 0.00 | 55 | 1009.5 |
| 20260505161527 | 70 | 140 | 9.0 | 18.0 | 0.00 | 0.00 | 0.00 | 58 | 1009.8 |
| 20260505153031 | 68 | 248 | 5.0 | 12.0 | 0.00 | 0.00 | 0.00 | 62 | 1009.6 |
| 20260505151527 | 66 | 246 | 3.0 | 13.0 | 0.00 | 0.00 | 0.00 | 65 | 1009.5 |